DECAYED

STARLINK-4463, 53659 (Decayed)

Orbit data source: Space-Track

STARLINK-4463, 53659 was a payload satellite owned by SpaceX/Seattle (US) in LEO that was launched on Wed, 31 Aug 2022 UTC via an FALCON 9 launch vehicle from the Air Force Western Test Range (AFWTR). Payload-class satellites include a variety of spacecraft equipped with specific instruments for various scientific and technological missions. These include communications satellites like Starlink; space stations such as the ISS; scientific satellites like the Hubble; Earth observation satellites from companies like Planet Labs, Umbra, and HawkEye 360; GPS; miniature CubeSats for education and research; and military/defense satellites.

Not visible in the next 10 days
Identifier
53659, 2022-105M
Orbit
Decayed
Country
Flag of USUS
Related business
Manufacturer
SpaceX/Seattle
Mission
Decayed Commercial Communications
Bus & Motor
STARLINK, Unknown motor
Mass
300 kg wet, ~290 kg dry
Launch date (UTC)
2022-08-31 (4 years ago)
Launch vehicle
FALCON 9
Launch site
Air Force Western Test Range (AFWTR)
Object type
Payload
Rocket body
Debris
Shape & HBR
Box + 1 Pan, 10.1 m
Radar Cross Section
13.562 m², Large (>1 m²)

Expand to show TLE details & history
Last TLE update: 4 months ago

TLE from 4 months ago
0 STARLINK-4463
1 53659U 22105M   26038.26395113  .12314950  27903-5  12061-3 0  9991
2 53659  97.5765 287.3287 0008891 235.8944 274.8749 16.50985640189101
Epoch: 2026-02-07T06:20Z
TLE epoch observation values (Epoch: 2026-02-07T06:20:05.377Z)
Latitude
29.10454°
Longitude
-120.8618°
Altitude
140.131 km
Speed
7.825 km/s
True Right ascension
07h 26m 12s
True Declination
28° 56' 41"
Sunlit
Object was in full shadow at epoch
Visualization orbit readout
Latitude
Unknown
Longitude
Unknown
Altitude
Unknown
Speed
Unknown
Apparent Right ascension
Unknown
Apparent Declination
Unknown
Sunlit
N/A
Visualization observer readout
Local Sidereal Time
21:29:14
Azimuth
Unknown
Elevation
Unknown
Doppler factor
Unknown
Orbital elements
Apogee altitude
139.332 km
Perigee altitude
127.753 km
Semi-major axis
6,511.68 km
Eccentricity
0.00089
Inclination
97.5765°
RAAN
287.3287°
Arg. of periapsis
235.8944°
True anomaly
274.77338°
Mean anomaly
274.8749°
Eccentric anomaly
274.82414°
Mean motion
4.13051 °/min
Orbital period
87.16 mins
BSTAR
0.00012061
Loading maneuver chart data...
Computing Atmospheric mass density...
Loading historical data...
Loading historical data...
Loading historical data...
Loading historical data...
Loading historical data...
Loading historical data...
Loading historical data...

Documentation

Showing up to 5 results
|